This is the latest recevied weather packets stored in our database for station/object W0AKO. If no packets are shown the sender has not sent any weather packets the latest 10 day(s).
| Time | Temp. | Humidity | Pressure | Rain* | Wind** | Luminosity | Snow |
|---|---|---|---|---|---|---|---|
| 1777412575 | 23.33° C | 10% | 1018 hPa | 0 mm | - | 558 W/m² | - |
| 1777412273 | 23.33° C | 10% | 1018.3 hPa | 0 mm | - | 603 W/m² | - |
| 1777411969 | 22.78° C | 10% | 1018.2 hPa | 0 mm | - | 653 W/m² | - |
| 1777411668 | 22.78° C | 10% | 1018.4 hPa | 0 mm | - | 704 W/m² | - |
| 1777411363 | 22.78° C | 10% | 1018.4 hPa | 0 mm | - | 649 W/m² | - |
| 1777411062 | 22.78° C | 10% | 1018.5 hPa | 0 mm | - | 734 W/m² | - |
| 1777410758 | 22.78° C | 10% | 1018.4 hPa | 0 mm | - | 799 W/m² | - |
| 1777410456 | 22.22° C | 10% | 1018.4 hPa | 0 mm | - | 817 W/m² | - |
| 1777410156 | 22.78° C | 10% | 1018.4 hPa | 0 mm | - | 800 W/m² | - |
| 1777409851 | 23.33° C | 10% | 1018.5 hPa | 0 mm | - | 818 W/m² | - |
| 1777409547 | 22.78° C | 10% | 1018.8 hPa | 0 mm | - | 627 W/m² | - |
| 1777409242 | 22.22° C | 10% | 1018.8 hPa | 0 mm | - | 791 W/m² | - |
| 1777408939 | 22.22° C | 10% | 1018.8 hPa | 0 mm | - | 387 W/m² | - |
| 1777408635 | 22.22° C | 10% | 1018.9 hPa | 0 mm | - | 760 W/m² | - |
| 1777408331 | 21.67° C | 10% | 1019 hPa | 0 mm | - | 779 W/m² | - |
| 1777408030 | 21.67° C | 10% | 1019 hPa | 0 mm | - | 474 W/m² | - |
| 1777407728 | 22.78° C | 10% | 1018.9 hPa | 0 mm | - | 734 W/m² | - |
| 1777407422 | 21.67° C | 10% | 1018.9 hPa | 0 mm | - | 813 W/m² | - |
| 1777407118 | 22.78° C | 10% | 1019.2 hPa | 0 mm | - | 792 W/m² | - |
| 1777406813 | 21.67° C | 10% | 1019.1 hPa | 0 mm | - | 812 W/m² | - |
| 1777406508 | 20.56° C | 10% | 1019.3 hPa | 0 mm | - | 793 W/m² | - |
| 1777406204 | 22.22° C | 10% | 1019 hPa | 0 mm | - | 642 W/m² | - |
| 1777405898 | 21.11° C | 10% | 1019.1 hPa | 0 mm | - | 761 W/m² | - |
| 1777405595 | 21.67° C | 10% | 1019.4 hPa | 0 mm | - | 655 W/m² | - |
| 1777405292 | 22.22° C | 10% | 1019.4 hPa | 0 mm | - | 407 W/m² | - |
* Rain latest hour (hover to see other rain measurements)
** Current wind speed in m/s (hover to see current wind gust speed)